Kansas City, MO

5:11 AM CDT on September 25, 2016 (GMT -0500)
Kansas City Downtown

Weather History for KMKC - November, 2011

Change the Weather History Date:

Saturday, November 19, 2011

  Actual Average Record
Temperature  
Mean Temperature 52 °F -  
Max Temperature 72 °F 51 °F 77 °F (2007)
Min Temperature 33 °F 34 °F 24 °F (2014)
Degree Days  
Heating Degree Days 12    
Growing Degree Days 2 (Base 50)    
Moisture  
Dew Point 38 °F    
Average Humidity 61    
Maximum Humidity 75    
Minimum Humidity 34    
Precipitation  
Precipitation 0.00 in - - ()
Sea Level Pressure  
Sea Level Pressure 29.78 in    
Wind  
Wind Speed 15 mph (WSW)    
Max Wind Speed 29 mph    
Max Gust Speed 41 mph    
Visibility 10 miles    
Events      
Averages and records for this station are not official NWS values.
T = Trace of Precipitation, MM = Missing Value Source: NWS Daily Summary

Daily Weather History Graph

Daily Weather History Graph

Search for Another Location

Airport or City:

Trip Planner

Search our weather history database for the weather conditions in past years. The results will help you decide how hot, cold, wet, or windy it might be!

Date:

Astronomy

Nov. 19, 2011 Rise Set
Actual Time 7:05 AM CST 5:01 PM CST
Civil Twilight 6:36 AM CST 5:30 PM CST
Nautical Twilight 6:04 AM CST 6:02 PM CST
Astronomical Twilight 5:32 AM CST 6:34 PM CST
Moon 12:29 AM CST (11/19) 1:16 PM CST (11/19)
Length of Visible Light 10h 53m
Length of Day
9h 55m
Last Quarter, 38% of the Moon is Illuminated
Nov 19
Last Quarter
Nov 25
New
Dec 2
First Quarter
Dec 10
Full
Dec 17
Last Quarter

Hourly Weather History & Observations

Time (CST) Temp. Windchill Dew Point Humidity Pressure Visibility Wind Dir Wind Speed Gust Speed Precip Events Conditions
12:54 AM 51.1 °F - 33.1 °F 50% 29.74 in 10.0 mi South 9.2 mph - N/A   Clear
1:54 AM 51.8 °F - 33.8 °F 50% 29.71 in 10.0 mi South 12.7 mph 21.9 mph N/A   Overcast
2:54 AM 52.0 °F - 36.0 °F 54% 29.69 in 10.0 mi South 12.7 mph - N/A   Mostly Cloudy
3:54 AM 54.0 °F - 37.0 °F 53% 29.67 in 10.0 mi South 12.7 mph - N/A   Overcast
4:54 AM 54.0 °F - 37.9 °F 55% 29.65 in 10.0 mi South 12.7 mph 20.7 mph N/A   Overcast
5:54 AM 54.0 °F - 39.0 °F 57% 29.64 in 10.0 mi South 15.0 mph 23.0 mph N/A   Overcast
6:54 AM 54.0 °F - 39.9 °F 59% 29.63 in 10.0 mi South 5.8 mph - N/A   Overcast
7:54 AM 57.9 °F - 48.0 °F 70% 29.62 in 10.0 mi South 18.4 mph 25.3 mph N/A   Overcast
8:54 AM 60.1 °F - 50.0 °F 69% 29.61 in 10.0 mi SSW 15.0 mph 23.0 mph N/A   Overcast
9:21 AM 62.6 °F - 51.8 °F 68% 29.60 in 10.0 mi SSW 21.9 mph 35.7 mph N/A   Scattered Clouds
9:31 AM 62.6 °F - 51.8 °F 68% 29.61 in 10.0 mi SSW 27.6 mph 35.7 mph N/A   Mostly Cloudy
9:54 AM 64.0 °F - 52.0 °F 65% 29.61 in 10.0 mi SSW 26.5 mph 41.4 mph N/A   Mostly Cloudy
10:54 AM 66.9 °F - 52.0 °F 59% 29.62 in 10.0 mi SSW 28.8 mph 40.3 mph N/A   Mostly Cloudy
11:54 AM 69.1 °F - 51.1 °F 53% 29.59 in 10.0 mi SSW 24.2 mph 33.4 mph N/A   Mostly Cloudy
12:54 PM 72.0 °F - 50.0 °F 46% 29.58 in 10.0 mi SW 18.4 mph 32.2 mph N/A   Mostly Cloudy
1:54 PM 71.6 °F - 42.8 °F 35% 29.61 in 10.0 mi WSW 17.3 mph 31.1 mph N/A   Clear
2:54 PM 71.1 °F - 41.0 °F 34% 29.65 in 10.0 mi West 18.4 mph 34.5 mph N/A   Clear
3:54 PM 63.0 °F - 39.0 °F 41% 29.73 in 10.0 mi WNW 19.6 mph 32.2 mph N/A   Clear
4:54 PM 50.0 °F - 37.0 °F 61% 29.83 in 10.0 mi NW 16.1 mph 28.8 mph N/A   Clear
5:38 PM 42.8 °F 37.0 °F 33.8 °F 70% 29.89 in 10.0 mi NW 10.4 mph 27.6 mph N/A   Mostly Cloudy
5:54 PM 42.1 °F 33.6 °F 33.1 °F 70% 29.91 in 10.0 mi NW 18.4 mph 25.3 mph N/A   Overcast
6:54 PM 39.0 °F 29.9 °F 30.0 °F 70% 29.97 in 10.0 mi NW 17.3 mph 25.3 mph N/A   Overcast
7:54 PM 37.0 °F 28.9 °F 28.0 °F 70% 30.01 in 10.0 mi NW 12.7 mph 21.9 mph N/A   Overcast
8:54 PM 35.1 °F 25.9 °F 27.0 °F 72% 30.05 in 10.0 mi NNW 13.8 mph 20.7 mph N/A   Overcast
9:14 PM 35.6 °F 27.5 °F 26.6 °F 70% 30.07 in 10.0 mi NNW 11.5 mph - N/A   Scattered Clouds
9:39 PM 33.8 °F 24.8 °F 26.6 °F 75% 30.08 in 9.0 mi NNW 12.7 mph 19.6 mph N/A   Mostly Cloudy
9:54 PM 34.0 °F 26.0 °F 26.1 °F 73% 30.10 in 10.0 mi NW 10.4 mph - N/A   Overcast
10:54 PM 34.0 °F 24.6 °F 26.1 °F 73% 30.13 in 8.0 mi North 13.8 mph - N/A   Overcast
11:54 PM 33.1 °F 25.5 °F 25.0 °F 72% 30.14 in 9.0 mi North 9.2 mph - N/A   Overcast